Tracking 21612 objects as of 19-Oct-2020
HD Live streaming from Space Station
objects crossing your sky now

COSMOS 1275 DEB

Track COSMOS 1275 DEB now!
10-day predictions


NORAD ID: 39943
Int'l Code: 1981-053NK
Perigee: 940.1 km
Apogee: 1,160.1 km
Inclination: 83.1 °
Period: 106.0 minutes
Semi major axis: 7421 km
RCS: 0.015 m2 (small)
Launch date: April 25, 1981
Source: Commonwealth of Independent States (former USSR) (CIS)
Launch site: PLESETSK MISSILE AND SPACE COMPLEX (PKMTR)

Note: This is SATELLITE DEBRIS
aabbcc
Your satellite tracking list
Your tracking list is empty




NASA's NSSDC Master Catalog

Two Line Element Set (TLE):
1 39943U 81053ND  20292.30719795 +.00000152 +00000-0 +17901-3 0  9990
2 39943 083.0676 230.5985 0148191 270.6161 247.0988 13.58001240315493
Source of the keplerian elements: AFSPC